Airfield :







YOU CAN JOIN US ON...

 
LOGIN :

Register | Disclaimer

   EN    FR    IT 

 









Legend :    VFR   Marginal VFR   IFR   Intensive IFR   Very Intensive IFR
Visi :
Ceiling :
>= 8 km
>= 3000ft
5 to 8 km
1000 to 3000 ft
1500m to 5 km
500 to 1000 ft
800 to 1500m
200 to 500 ft
< 800m
< 200 ft
Symbols :   Thunderstorms  Fog  Heavy snow  Heavy precipitations  Wind > 20 kt






- Airport Elevation : 6 ft
- IATA code : AEY


BIAR - Akureyri

CURRENT METAR :
  • 200000Z 00000KT 9999 BKN034 M00/M02 Q1023

EXPIRED METARs :
  • 192300Z 00000KT 9999 OVC037 M00/M01 Q1023
  • 192200Z 00000KT 9999 BKN038 01/M01 Q1024

TAF TAF BIAR
Valid from the 20 at 00:00 until the 21 at 00:00 UTC


192233Z 2000/2100 VRB02KT 9999 SCT020 BKN035 TX03/2015Z TNM03/2023Z
BECMG 2010/2012 34007KT



MET'MAP, your aeronautical weather chart ! - Copyright ORBIFLY December 2007 - Disclaimer

ORBIFLY MET'MAP TEAM :

Programming & Development : Alexandra Zaïnal
Concept & original design : Baudouin d'Aumeries
Assistance for programming : Marc-Olivier Méhu
Technical & hardware support : Manuel Goepfert

Contact : metmap@orbifly.com




SOURCES & CREDITS :

   NOAA